Temperature
20 20 20 20 20 20 20 19 19 19 18 18 18 17 17 16 16 16 15 15 15 15 15 14 14 14 14 14 14 14 14 14 14 15 15 15 15 16 16 16 16 16 16
20 20 20 20 20 20 20 19 19 19 18 18 18 17 17 16 16 16 16 15 15 15 15 14 14 14 14 14 14 14 14 14 14 14 14 15 15 15 15 15 16 16 16
20 20 20 20 20 20 19 19 19 18 18 18 17 17 17 16 16 16 16 15 15 15 15 14 14 14 14 14 14 14 14 14 14 14 14 14 14 15 15 15 15 15 16
20 20 20 20 20 19 19 19 19 18 18 18 17 17 17 16 16 16 16 15 15 15 15 14 14 14 14 14 14 14 13 13 14 14 14 14 14 14 14 15 15 15 15
19 19 19 19 19 19 19 19 18 18 18 17 17 17 17 16 16 16 16 15 15 15 15 15 14 14 14 14 14 14 14 13 13 13 14 14 14 14 14 14 15 15 15
19 19 19 19 19 19 18 18 18 18 17 17 17 17 16 16 16 16 16 15 15 15 15 15 14 14 14 14 14 14 14 13 13 13 13 14 14 14 14 14 14 14 15
19 19 18 18 18 18 18 18 18 17 17 17 17 16 16 16 16 15 15 15 15 15 15 15 14 14 14 14 14 14 14 14 14 14 14 14 14 14 14 14 14 14 14
18 18 18 18 18 18 17 17 17 17 17 17 16 16 16 16 15 15 15 15 15 15 15 14 14 14 14 14 14 14 14 14 14 14 14 14 14 14 14 14 14 14 14
18 18 18 18 17 17 17 17 17 17 16 16 16 16 16 15 15 15 15 15 15 15 14 14 14 14 14 14 14 14 14 14 14 14 14 14 14 14 14 14 14 14 14
17 17 17 17 17 17 17 17 16 16 16 16 16 16 15 15 15 15 15 15 14 14 14 14 14 14 14 14 14 14 14 14 14 14 14 14 14 14 14 14 14 14 14
17 17 17 17 17 17 16 16 16 16 16 15 15 15 15 15 15 15 15 14 14 14 14 14 14 14 14 14 14 14 14 14 14 14 14 14 14 14 14 14 14 14 14
17 17 17 16 16 16 16 16 16 15 15 15 15 15 15 15 14 14 14 14 14 14 14 14 13 13 13 13 13 13 14 14 14 14 14 14 14 14 14 14 14 14 14
17 16 16 16 16 16 16 15 15 15 15 14 14 14 14 14 14 14 14 14 13 13 13 13 13 13 13 13 13 13 13 13 13 13 13 13 13 14 14 14 14 14 14
16 16 16 16 16 15 15 15 15 14 14 14 14 14 14 14 13 13 13 13 13 13 13 13 13 13 13 13 13 13 13 13 13 13 13 13 13 13 13 14 14 14 14
16 16 16 16 15 15 15 15 14 14 14 14 13 13 13 13 13 13 13 12 12 12 12 12 12 12 12 12 12 12 12 12 13 13 13 13 13 13 13 13 13 13 13
16 16 15 15 15 15 15 14 14 14 14 13 13 13 13 12 12 12 12 12 12 12 12 12 12 12 12 12 12 12 12 12 12 12 13 13 13 13 13 13 13 13 13
16 16 15 15 15 14 14 14 14 14 13 13 13 12 12 12 12 12 12 12 11 11 11 11 11 11 11 11 11 11 11 11 12 12 12 12 12 12 12 13 13 13 13
16 15 15 15 14 14 14 14 13 13 13 13 12 12 12 12 11 11 11 11 11 11 11 11 11 11 11 11 11 11 11 11 11 11 12 12 12 12 12 12 12 12 12
16 16 15 15 14 14 13 13 13 13 13 12 12 12 11 11 11 11 11 10 10 10 10 10 10 10 10 10 10 10 11 11 11 11 11 11 11 11 11 11 12 12 12
16 15 15 14 14 14 13 13 13 12 12 12 12 11 11 11 11 10 10 10 10 10 10 10 10 10 10 10 10 10 10 10 10 11 11 11 11 11 11 11 11 11 11
15 15 14 14 14 13 13 13 12 12 12 11 11 11 11 10 10 10 10 10 9 9 9 9 9 9 9 9 9 9 9 10 10 10 10 10 10 10 10 10 11 11 11
15 14 14 14 13 13 12 12 12 12 11 11 11 11 10 10 10 10 9 9 9 9 9 9 9 9 9 9 9 9 9 9 9 9 10 10 10 10 10 10 10 10 10
15 14 14 13 13 12 12 12 12 11 11 11 10 10 10 10 10 9 9 9 9 8 8 8 8 8 8 8 8 8 8 9 9 9 9 9 10 10 10 10 10 10 10
14 14 13 13 12 12 12 12 11 11 11 10 10 10 10 10 9 9 9 8 8 8 8 8 8 8 8 8 8 8 8 8 8 8 9 9 9 9 9 10 10 10 10
14 13 13 13 12 12 11 11 11 11 10 10 10 10 9 9 9 9 8 8 8 8 7 7 7 7 7 7 7 7 7 7 8 8 8 8 8 9 9 9 9 9 9
13 13 13 12 12 12 11 11 11 10 10 10 10 9 9 9 8 8 8 8 8 7 7 7 7 7 7 7 7 7 7 7 7 7 7 8 8 8 8 8 8 9 9
Wind_Speed
3 5 6 6 6 5 5 5 5 3 3 2 2 2 1 1 1 1 1 0 0 1 2 1 2 3 2 3 3 2 3 3 3 3 4 4 4 3 2 2 1 2 3
4 4 5 5 5 5 4 4 4 4 3 2 2 1 1 1 1 1 2 2 2 1 1 0 1 2 2 3 3 2 2 3 2 2 2 4 5 4 4 3 2 2 1
5 4 4 4 4 3 3 4 4 3 3 3 3 3 3 3 3 3 2 3 3 3 2 2 1 1 1 2 3 2 1 2 2 1 1 1 2 4 4 3 3 2 1
4 4 4 3 3 3 3 3 3 3 2 3 3 3 2 0 2 2 2 4 4 3 3 3 2 2 2 2 3 1 1 0 2 2 1 2 3 1 3 4 3 3 1
5 4 3 3 3 3 4 3 4 3 2 2 3 2 1 1 2 2 3 4 4 4 4 3 2 2 2 3 3 2 1 1 1 1 1 1 1 1 1 3 4 3 2
5 4 4 4 4 4 4 4 4 3 2 1 1 1 0 1 2 3 3 3 3 4 4 3 2 3 3 3 3 3 3 2 2 2 2 2 1 2 2 2 3 3 3
5 5 5 4 4 4 3 3 4 2 1 1 1 1 1 1 1 2 2 3 3 3 4 3 3 3 4 4 3 3 3 3 3 3 3 3 3 3 3 2 2 2 2
5 5 5 4 3 3 2 3 2 1 1 2 2 2 1 0 1 2 1 2 2 3 4 4 4 5 4 4 3 3 3 3 3 4 4 3 4 3 3 3 2 1 2
5 5 4 3 2 2 1 2 2 1 2 2 2 3 2 1 1 2 1 2 2 3 4 4 4 5 5 4 4 3 4 3 3 4 4 3 3 3 3 4 4 3 2
5 5 4 3 2 1 1 2 2 1 2 2 2 3 2 2 2 2 3 4 4 3 4 5 4 5 5 4 3 4 4 4 4 3 4 4 3 3 3 3 3 4 4
6 5 3 2 2 2 2 3 2 2 2 2 2 3 3 3 3 3 4 4 4 4 4 5 5 5 5 4 4 4 4 4 4 4 4 5 4 3 3 3 3 3 4
6 5 4 3 2 2 2 2 2 2 2 2 2 2 3 3 4 4 5 5 5 5 5 5 5 5 5 5 4 5 4 4 4 4 4 5 4 4 3 3 4 4 4
6 4 3 3 2 2 1 1 1 1 1 2 3 3 4 4 4 5 5 5 5 5 5 5 5 5 6 5 4 4 5 4 4 4 4 5 4 4 3 4 4 3 4
7 5 3 2 2 1 1 1 1 1 2 3 3 3 3 3 4 4 5 5 5 5 6 5 5 5 5 5 5 5 5 5 5 4 4 4 4 5 5 4 5 4 4
7 6 4 3 2 2 1 1 1 1 2 3 3 2 3 4 4 5 5 5 6 6 5 5 6 6 5 5 6 5 5 5 5 5 4 5 6 7 5 4 4 4 4
7 6 5 4 3 2 2 1 1 1 2 2 2 2 3 4 5 5 5 6 6 6 6 6 6 6 7 10 10 6 4 5 5 5 5 5 5 6 7 7 7 6 6
8 7 6 5 4 3 3 2 1 1 2 2 2 3 3 4 5 6 6 6 6 6 6 6 6 6 8 12 12 9 4 4 5 5 5 5 5 5 4 6 6 7 9
9 7 6 4 3 3 2 2 2 2 2 2 2 3 3 4 5 5 6 6 5 5 5 6 6 6 9 14 13 11 5 4 6 5 5 4 4 4 3 3 4 5 6
8 7 6 5 4 3 3 3 2 1 1 1 2 3 3 3 4 5 5 5 5 6 5 5 6 6 9 13 14 11 4 4 6 6 5 5 4 7 6 3 4 5 6
8 7 5 4 4 3 3 3 1 0 2 3 3 3 3 3 4 4 4 4 4 5 6 6 6 6 7 12 14 12 3 4 5 5 5 7 7 8 7 4 4 5 6
7 7 6 4 4 3 3 3 2 3 4 3 3 3 3 3 3 3 3 4 5 6 6 6 6 6 7 10 13 13 5 4 5 5 5 6 10 10 9 7 5 8 7
7 7 6 4 3 3 3 3 3 4 3 2 2 3 4 4 3 3 4 4 4 5 6 6 7 6 7 8 10 13 10 8 5 5 5 7 12 12 11 8 8 10 7
7 6 6 4 3 3 4 4 5 4 2 2 3 4 4 4 3 3 4 4 4 4 6 5 6 7 6 7 12 13 12 11 6 6 9 11 13 11 9 9 10 7 4
6 5 5 4 3 3 4 5 5 3 2 3 4 4 4 4 4 4 3 4 4 5 6 6 6 7 6 6 6 6 6 7 7 6 8 10 10 8 8 8 6 4 4
5 5 6 5 5 4 4 4 4 3 3 3 4 4 4 4 5 4 4 5 5 6 7 6 6 6 7 9 12 9 6 6 6 7 4 4 5 5 5 5 4 4 4
5 5 5 5 5 4 4 4 3 3 3 3 4 4 4 4 4 5 6 8 8 12 13 12 11 9 11 14 14 14 13 12 11 6 4 5 5 6 6 6 6 5 5
Wind_Direction
141 123 121 127 125 125 127 130 126 125 114 95 93 77 32 334 340 296 274 325 357 32 51 17 358 6 360 333 337 341 346 337 342 3 343 334 339 339 318 308 280 250 232
107 112 116 116 126 132 135 144 148 144 141 125 136 152 165 267 279 308 314 286 267 288 273 316 327 347 348 341 342 353 352 335 5 39 15 348 342 342 341 339 319 281 247
141 140 122 115 113 118 137 150 161 150 146 114 84 57 44 21 7 348 322 299 282 279 274 266 275 304 303 301 306 314 5 327 333 48 124 85 293 314 326 338 341 330 317
125 125 118 115 119 122 113 118 131 134 131 117 107 107 99 3 267 282 295 302 299 290 277 268 267 281 279 287 294 295 238 205 316 323 277 207 204 245 319 326 334 334 328
126 122 119 130 113 103 104 101 100 98 103 118 131 125 130 243 293 316 324 321 317 306 292 276 273 281 272 271 284 299 280 218 227 259 278 291 283 218 207 301 322 333 318
120 111 95 87 71 66 77 83 91 83 78 102 121 130 187 292 332 331 327 321 318 313 303 286 276 276 269 266 265 265 267 255 245 243 221 201 216 232 203 245 286 301 298
122 110 99 89 77 71 70 76 84 67 29 34 12 334 275 259 267 287 297 305 313 309 303 295 281 276 272 271 265 257 266 258 254 250 239 219 219 209 194 206 255 284 296
128 125 126 124 116 110 92 88 87 56 12 11 350 353 11 1 289 284 287 278 276 281 293 292 293 291 288 284 272 259 259 254 255 259 250 242 238 212 197 193 189 274 312
134 129 120 117 120 117 102 108 103 48 4 1 8 15 17 16 328 317 324 303 296 304 302 305 311 306 302 294 281 267 265 261 257 260 258 250 250 233 216 201 187 178 223
136 130 128 129 119 106 82 70 75 61 23 19 23 31 10 357 347 351 339 327 314 315 319 320 318 317 314 311 295 280 276 274 272 260 259 259 253 251 237 215 203 187 187
147 143 141 136 118 85 71 65 55 47 34 30 27 21 5 3 5 1 345 334 327 322 317 316 318 315 314 312 316 298 290 283 285 284 268 265 255 246 248 229 206 200 185
149 143 135 118 101 88 71 65 65 63 40 43 43 25 11 11 7 349 340 345 341 332 324 324 323 316 314 312 311 307 296 285 284 284 282 279 271 253 245 231 225 213 199
139 130 121 115 113 114 102 87 76 74 46 52 45 26 12 3 353 341 339 344 343 339 338 340 333 323 317 313 305 301 289 275 274 277 276 277 269 262 255 240 236 231 219
151 146 141 139 138 131 127 103 49 71 67 60 49 26 2 354 342 341 340 338 339 340 337 337 333 327 320 317 316 302 303 293 284 278 273 272 258 252 254 248 238 231 222
160 161 158 155 148 137 103 80 60 47 71 66 41 6 352 353 349 343 337 336 339 340 330 331 332 329 324 332 332 320 316 307 296 295 289 278 271 261 252 252 236 221 221
168 166 162 159 162 164 159 103 53 39 83 71 22 353 356 353 345 334 335 337 335 332 332 330 327 329 333 333 332 332 319 313 304 299 301 299 289 289 276 264 249 225 217
169 167 168 172 177 179 166 155 151 79 73 54 7 353 351 345 335 336 342 334 328 330 327 322 325 320 315 328 332 326 324 308 298 288 289 301 309 308 301 296 291 267 244
170 170 169 169 176 171 161 145 104 79 64 23 343 333 337 332 333 340 335 325 322 325 316 314 317 316 322 333 335 328 325 316 303 287 275 271 280 294 294 303 308 297 284
166 166 168 165 162 165 161 128 97 76 51 320 308 302 308 321 331 331 322 318 323 323 314 313 316 317 318 332 336 335 319 310 305 302 297 276 268 282 286 277 285 295 298
156 157 156 147 149 174 153 130 150 180 265 270 278 288 293 305 308 306 306 312 317 315 315 318 315 311 311 327 337 339 317 303 304 307 303 293 287 290 291 266 252 267 281
157 154 149 151 170 173 143 150 196 240 252 263 280 301 300 294 289 299 304 312 318 323 318 314 312 311 310 320 333 335 327 301 302 303 301 295 299 297 291 277 252 255 268
158 155 153 166 184 170 152 179 232 248 254 265 289 299 298 299 313 309 307 313 316 323 315 310 312 310 308 312 320 327 324 319 297 291 293 294 299 296 291 280 270 271 276
162 161 161 172 197 193 174 201 239 246 247 264 284 292 298 300 299 294 299 308 313 312 312 305 304 308 309 310 317 320 317 314 304 286 290 299 301 297 289 277 275 275 260
166 163 160 173 210 225 216 221 234 230 221 248 273 285 291 298 301 296 289 292 300 301 305 304 297 299 302 302 306 306 308 305 306 297 298 304 301 290 281 284 275 258 243
173 170 174 190 215 225 236 246 239 213 220 245 266 278 275 280 290 288 276 276 271 271 284 286 280 288 295 291 295 301 300 297 293 303 302 305 302 297 291 284 275 264 255
173 176 186 200 217 221 237 253 243 214 212 244 264 267 269 275 280 289 300 290 282 291 290 291 288 282 278 290 298 300 299 298 300 306 295 293 289 286 282 277 277 269 256
Height
1535 1536 1536 1537 1538 1539 1539 1540 1540 1540 1539 1539 1538 1538 1537 1536 1536 1534 1533 1531 1530 1528 1526 1524 1523 1521 1520 1518 1516 1515 1513 1512 1511 1510 1509 1509 1509 1508 1508 1509 1509 1509 1510
1535 1536 1536 1537 1538 1538 1539 1539 1540 1539 1539 1539 1538 1538 1537 1536 1535 1534 1533 1531 1530 1528 1526 1524 1523 1521 1519 1518 1516 1515 1513 1512 1511 1510 1509 1508 1509 1507 1507 1507 1507 1507 1508
1534 1535 1536 1537 1538 1538 1539 1539 1539 1539 1539 1538 1538 1537 1536 1536 1535 1533 1532 1531 1529 1528 1526 1524 1523 1521 1519 1517 1516 1514 1513 1512 1511 1510 1510 1509 1508 1507 1507 1506 1506 1506 1506
1534 1535 1536 1536 1537 1538 1538 1539 1539 1539 1539 1538 1537 1537 1536 1535 1534 1533 1531 1530 1529 1527 1526 1524 1522 1521 1519 1517 1516 1514 1513 1512 1511 1510 1510 1510 1509 1508 1506 1506 1505 1505 1505
1533 1534 1535 1536 1537 1538 1538 1538 1538 1538 1538 1538 1537 1536 1535 1534 1533 1532 1531 1529 1528 1526 1525 1523 1521 1520 1518 1517 1515 1514 1512 1511 1510 1510 1509 1508 1508 1508 1507 1505 1505 1504 1504
1533 1534 1535 1536 1537 1538 1538 1538 1538 1538 1537 1537 1536 1535 1534 1533 1532 1531 1529 1528 1527 1525 1524 1522 1520 1519 1517 1516 1514 1513 1512 1511 1509 1509 1508 1507 1507 1507 1506 1505 1504 1503 1504
1533 1534 1535 1535 1536 1537 1537 1537 1537 1537 1537 1536 1535 1534 1533 1532 1531 1530 1528 1527 1525 1524 1522 1521 1519 1518 1516 1515 1513 1512 1510 1509 1508 1507 1507 1506 1506 1506 1505 1504 1503 1503 1502
1532 1533 1534 1535 1536 1536 1537 1536 1536 1536 1536 1535 1534 1533 1532 1531 1530 1529 1527 1526 1524 1522 1521 1519 1518 1516 1515 1513 1512 1510 1509 1508 1507 1506 1505 1504 1504 1504 1503 1503 1503 1502 1502
1532 1533 1534 1535 1536 1536 1536 1536 1536 1535 1535 1534 1533 1532 1531 1530 1529 1528 1526 1525 1523 1521 1519 1518 1516 1514 1513 1511 1510 1508 1507 1506 1505 1504 1503 1502 1502 1501 1501 1501 1501 1502 1500
1532 1533 1534 1535 1535 1535 1535 1535 1535 1534 1534 1533 1532 1531 1530 1528 1527 1526 1525 1523 1521 1519 1518 1516 1514 1512 1511 1509 1507 1506 1505 1504 1503 1502 1501 1500 1500 1499 1499 1499 1499 1499 1499
1531 1532 1533 1534 1534 1535 1534 1534 1534 1533 1532 1531 1530 1529 1528 1527 1526 1524 1523 1521 1519 1517 1516 1514 1512 1510 1508 1507 1505 1504 1502 1501 1500 1500 1499 1498 1497 1497 1496 1496 1496 1496 1497
1530 1532 1532 1533 1533 1534 1533 1533 1532 1532 1531 1530 1529 1528 1527 1525 1524 1522 1521 1519 1517 1515 1513 1511 1510 1508 1506 1504 1503 1501 1500 1499 1498 1497 1496 1495 1494 1494 1494 1493 1493 1493 1494
1529 1531 1531 1532 1532 1532 1532 1532 1531 1531 1530 1529 1528 1527 1525 1524 1522 1520 1519 1517 1515 1513 1511 1509 1507 1505 1503 1501 1500 1498 1497 1496 1495 1494 1493 1492 1491 1491 1491 1490 1490 1490 1490
1528 1529 1530 1530 1531 1531 1531 1530 1530 1529 1528 1527 1526 1525 1523 1522 1520 1519 1517 1515 1513 1511 1508 1506 1505 1503 1501 1499 1496 1495 1493 1492 1492 1491 1490 1489 1488 1488 1487 1487 1487 1487 1487
1526 1528 1528 1529 1529 1529 1529 1529 1529 1528 1527 1526 1525 1523 1522 1520 1519 1517 1515 1513 1510 1508 1506 1504 1502 1500 1498 1496 1494 1492 1490 1488 1488 1487 1486 1486 1485 1484 1484 1484 1483 1483 1483
1524 1526 1527 1527 1527 1528 1527 1527 1527 1526 1525 1524 1523 1522 1520 1518 1516 1514 1512 1510 1508 1506 1503 1501 1499 1497 1495 1493 1491 1488 1487 1485 1484 1483 1483 1482 1481 1481 1480 1480 1479 1479 1479
1521 1523 1524 1525 1525 1526 1526 1526 1525 1524 1523 1522 1521 1520 1518 1516 1514 1512 1510 1507 1505 1503 1501 1498 1496 1494 1491 1489 1487 1485 1483 1482 1480 1479 1479 1478 1477 1477 1476 1475 1475 1474 1474
1518 1520 1522 1523 1523 1524 1524 1524 1523 1522 1521 1520 1519 1517 1516 1514 1512 1509 1507 1505 1502 1500 1497 1495 1493 1490 1488 1486 1484 1482 1479 1478 1477 1476 1475 1474 1473 1473 1472 1470 1470 1469 1469
1515 1518 1519 1520 1521 1521 1522 1521 1521 1520 1519 1518 1516 1515 1513 1511 1509 1507 1504 1502 1500 1497 1495 1492 1490 1487 1485 1483 1480 1478 1476 1474 1473 1472 1471 1470 1469 1468 1468 1467 1465 1464 1464
1514 1516 1517 1518 1519 1519 1519 1519 1518 1517 1516 1515 1514 1512 1511 1509 1506 1504 1502 1499 1497 1494 1492 1489 1487 1484 1481 1479 1476 1474 1472 1470 1468 1467 1466 1466 1465 1464 1463 1462 1461 1460 1459
1511 1513 1514 1515 1516 1516 1516 1516 1515 1514 1513 1512 1511 1509 1508 1506 1504 1502 1499 1496 1494 1491 1488 1485 1483 1481 1478 1475 1473 1471 1468 1466 1464 1462 1461 1460 1460 1459 1458 1457 1456 1455 1455
1508 1510 1511 1512 1513 1513 1513 1513 1512 1511 1510 1509 1508 1506 1504 1503 1501 1498 1496 1493 1490 1487 1484 1481 1478 1476 1474 1472 1469 1467 1465 1463 1461 1458 1457 1455 1454 1453 1452 1452 1451 1450 1450
1505 1507 1508 1509 1510 1510 1510 1510 1509 1508 1507 1506 1504 1503 1501 1499 1497 1494 1492 1489 1486 1483 1480 1477 1474 1472 1470 1467 1465 1463 1460 1458 1456 1454 1452 1451 1449 1448 1446 1446 1445 1445 1444
1502 1504 1505 1506 1506 1507 1507 1506 1506 1505 1503 1502 1500 1499 1497 1495 1493 1491 1488 1485 1483 1480 1476 1473 1470 1468 1465 1463 1460 1458 1456 1453 1451 1449 1447 1445 1444 1442 1441 1440 1439 1439 1438
1499 1501 1502 1502 1503 1503 1503 1502 1502 1501 1499 1498 1496 1495 1493 1490 1488 1486 1484 1481 1479 1477 1473 1470 1467 1464 1461 1459 1457 1454 1451 1448 1446 1443 1441 1439 1438 1436 1435 1434 1433 1433 1432
1496 1497 1498 1499 1499 1499 1499 1498 1498 1497 1495 1494 1492 1490 1488 1486 1483 1481 1479 1476 1475 1472 1469 1466 1464 1460 1458 1455 1452 1450 1447 1444 1442 1439 1436 1434 1432 1431 1429 1428 1427 1427 1426